Lid_Strength_Index
0 -0 -0 -0 -0 1 1 1 1 1 1 1 1 1 1 1 2 5 7 4 4 -0 3 6 6 7 8 8 8 8 12 13 12 12 10 10 11 10 10 10 9 9 9 8 6
1 0 0 -0 -0 -0 -1 0 0 1 2 2 1 1 1 2 5 7 3 3 1 0 6 7 8 8 9 9 9 10 12 11 10 10 10 11 11 10 11 11 10 10 9 8 6
1 2 1 0 0 -0 -0 -1 -2 -1 1 1 1 1 1 3 8 7 3 2 0 2 6 7 7 8 9 9 10 10 11 10 11 10 11 11 11 10 11 11 9 9 9 8 7
1 1 1 1 0 -0 -0 -2 -2 -1 -1 -0 1 2 2 5 11 7 1 0 0 5 7 8 9 10 10 11 10 12 11 11 11 10 11 11 10 11 10 9 9 9 9 8 8
1 1 2 1 1 0 -0 -1 -2 -1 -2 -1 -1 1 5 9 8 5 0 1 4 7 8 9 10 10 11 11 11 12 11 11 11 11 11 11 11 11 10 9 10 10 10 9 8
1 1 1 1 1 0 0 -0 -1 -1 -1 -1 -1 0 6 10 5 5 3 5 7 8 8 8 9 9 10 11 11 10 11 11 11 11 11 12 11 12 10 9 10 11 11 10 10
1 1 1 1 1 1 1 0 -0 -1 -1 -1 -1 1 6 6 5 3 5 6 7 8 9 8 8 10 9 11 10 11 12 11 11 11 11 11 13 13 9 11 11 11 11 11 11
1 0 0 0 -0 0 0 -0 -0 -1 -1 -1 -1 2 6 2 2 5 6 8 7 7 8 7 8 9 10 10 11 12 12 13 11 11 11 11 12 10 10 11 11 11 11 11 11
0 0 0 -0 -0 0 0 -0 -1 -2 -1 -1 1 4 7 4 6 4 5 8 8 8 8 8 8 10 11 12 13 13 13 13 12 12 13 12 12 11 12 12 12 12 11 12 11
0 0 0 -0 -0 -0 0 0 -1 -1 -0 1 3 6 6 8 6 6 5 5 9 9 10 10 10 12 12 13 16 15 16 14 13 12 13 13 13 12 12 12 12 11 12 12 12
0 0 -0 -0 0 -0 0 1 4 5 4 6 6 6 5 5 5 6 5 7 8 10 13 12 14 15 13 13 12 12 13 14 12 13 13 13 13 12 11 12 12 12 12 13 13
0 1 0 -0 -0 0 1 5 6 4 8 5 4 4 3 6 9 7 5 8 10 11 11 14 16 12 12 12 13 13 14 14 14 14 14 14 14 12 11 11 11 11 12 13 13
0 0 0 1 0 1 3 4 1 2 9 8 5 5 5 5 7 8 7 7 10 12 13 14 12 11 14 14 15 14 15 14 14 15 15 15 14 13 12 11 11 12 11 13 13
1 0 1 1 3 3 6 2 1 2 12 11 8 6 4 5 8 5 5 7 11 12 12 13 11 13 14 15 15 16 13 14 15 16 17 15 17 12 13 14 15 14 14 14 13
0 0 0 1 4 5 3 1 1 3 19 9 7 2 4 8 7 7 5 7 12 12 12 13 13 14 15 14 13 15 14 15 15 16 16 16 18 13 16 16 15 15 15 14 13
-1 0 -0 1 1 1 -0 1 3 13 19 11 8 9 10 8 8 7 8 7 9 12 11 11 11 11 12 12 12 13 15 15 16 16 20 16 17 15 13 14 14 15 14 14 14
-0 -0 -0 -1 3 -1 0 4 13 17 9 11 10 10 11 11 10 10 11 12 13 15 15 13 13 12 12 14 13 13 16 19 21 21 20 17 17 14 13 15 15 15 14 14 14
-1 -1 -1 -1 -2 -1 2 9 17 12 12 9 10 10 13 11 11 11 12 13 11 11 13 16 17 13 12 13 15 15 14 18 22 21 19 19 20 15 15 17 18 15 15 15 14
-2 -0 1 -0 -1 -0 6 14 14 12 9 9 10 13 12 11 11 12 12 13 11 11 15 16 16 11 12 12 13 15 17 14 20 22 20 19 17 15 16 18 18 17 15 15 14
1 2 2 -1 -1 3 9 12 12 9 8 9 13 11 14 13 13 13 13 11 11 9 8 13 16 13 13 12 13 14 13 18 16 22 22 18 19 16 19 18 18 18 16 15 15
2 6 1 -1 1 6 12 11 11 8 7 10 11 12 12 13 12 13 13 10 10 10 9 12 14 15 13 13 14 15 15 14 14 16 20 20 17 14 15 16 17 16 15 15 15
3 9 1 0 8 8 11 11 8 8 7 8 8 10 11 11 13 12 13 11 9 10 12 12 13 17 16 15 15 12 13 14 17 19 19 19 16 18 19 17 15 16 15 15 14
6 6 1 2 12 11 9 10 9 10 9 9 10 9 9 12 14 12 11 8 8 10 11 11 15 19 18 16 15 15 15 14 16 16 19 18 16 19 20 20 18 16 16 16 15
6 9 6 5 6 9 10 10 11 8 8 8 9 8 10 11 10 12 12 10 8 9 8 9 13 15 17 16 15 17 15 15 14 17 18 16 16 15 17 18 19 17 15 15 15
5 8 6 11 9 9 9 10 11 11 8 8 10 10 11 13 13 12 11 10 10 9 10 11 15 16 18 18 17 16 16 16 16 15 17 16 18 14 15 17 17 16 16 17 18
7 8 6 8 7 9 9 11 11 10 10 10 11 10 10 12 12 13 11 11 11 10 11 11 15 16 18 18 17 17 16 15 15 14 16 21 19 15 19 20 18 16 17 17 17
3 3 6 7 8 10 10 10 10 9 8 7 8 10 11 10 8 8 9 9 9 11 12 12 15 15 18 18 17 18 17 16 15 14 15 17 14 16 17 18 15 16 17 16 16